Weather observations for the past three days for
Monticello Regional Airport
Imperial (Metric)
Date Time (cdt) Wind (mph) Vis. (mi.) Weather Sky Cond. Temperature (ºF) Relative Humidity Wind Chill (°F) Heat Index (°F) Pressure Precipitation (in)
Air Dwpt 6 hour altimeter (in) sea level (mb) 1 hr 3 hr 6 hr
Max. Min.
15 05:55 Calm 3.00 Fog/Mist CLR 66.2 66.2 100% 29.85 0.0
15 05:35 Calm 3.00 Fog/Mist CLR 66.2 66.2 100% 29.85 0.0
15 05:15 Calm 5.00 Fog/Mist CLR 68 68 100% 29.85 0.0
15 04:55 Calm 2.00 Fog/Mist FEW021 68 68 100% 29.85 0.0
15 04:35 Calm 4.00 Fog/Mist CLR 68 68 100% 29.85 0.0
15 04:15 Calm 4.00 Fog/Mist CLR 68 68 100% 29.85 0.0
15 03:55 Calm 3.00 Fog/Mist CLR 68 68 100% 29.85 0.0
15 03:35 S 3 3.00 Fog/Mist CLR 68 68 100% 29.84 0.0
15 03:15 Calm 6.00 Fog/Mist CLR 69.8 69.8 100% 29.84 0.0
15 02:55 Calm 4.00 Fog/Mist CLR 69.8 69.8 100% 29.85 0.0
15 02:35 Calm 6.00 Fog/Mist CLR 69.8 69.8 100% 29.86 0.0
15 02:15 Calm 5.00 Fog/Mist CLR 69.8 69.8 100% 29.86 0.0
15 01:55 Calm 5.00 Fog/Mist CLR 69.8 69.8 100% 29.86 0.0
15 01:35 Calm 5.00 Fog/Mist CLR 69.8 69.8 100% 29.86 0.0
15 01:15 Calm 9.00 Fair CLR 71.6 71.6 100% 29.85 0.0
15 00:55 W 3 9.00 Fair CLR 71.6 71.6 100% 29.85 0.0
15 00:35 Calm 7.00 Fair CLR 71.6 71.6 100% 29.86 0.0
15 00:15 Calm 9.00 Fair CLR 73.4 73.4 100% 29.86 0.0
14 23:55 Calm 10.00 Partly Cloudy SCT023 73.4 73.4 100% 29.87 0.0
14 23:35 S 3 10.00 A Few Clouds FEW025 73.4 73.4 100% 29.87 0.0
14 23:10 Calm 10.00 Partly Cloudy FEW023 SCT027 SCT047 75.2 73.4 94% 74 29.86 0.0
14 22:55 E 5 10.00 Mostly Cloudy SCT026 BKN036 BKN045 77 75.2 94% 78 29.84 0.0
14 22:35 Vrbl 5 10.00 Mostly Cloudy FEW031 SCT036 BKN046 77 73.4 89% 78 29.85 0.0
14 22:15 W 7 10.00 Partly Cloudy FEW044 SCT055 75.2 73.4 94% 74 29.84 0.0
14 21:55 NW 6 10.00 Fair CLR 77 71.6 83% 78 29.8 0.0
14 21:35 NW 8 G 14 10.00 Fair CLR 77 71.6 83% 78 29.8 0.0
14 21:15 NW 10 G 17 9.00 Light Rain FEW032 SCT042 BKN100 77 73.4 89% 78 29.8 0.0
14 20:55 NW 13 G 33 10.00 Overcast BKN034 BKN046 OVC110 82.4 75.2 79% 89 29.8 0.0
14 20:35 W 7 10.00 Mostly Cloudy FEW038 SCT045 BKN055 82.4 78.8 89% 92 29.81 0.0
14 20:15 W 5 10.00 Partly Cloudy SCT042 SCT060 82.4 78.8 89% 92 29.81 0.0
14 19:55 W 6 10.00 Fair CLR 82.4 78.8 89% 92 29.81 0.0
14 19:35 W 6 10.00 Fair CLR 84.2 78.8 84% 96 29.81 0.0
14 19:15 W 6 10.00 Fair CLR 84.2 78.8 84% 96 29.81 0.0
14 18:55 W 6 10.00 A Few Clouds FEW050 FEW060 84.2 78.8 84% 96 29.81 0.0
14 18:35 W 7 10.00 Partly Cloudy SCT050 SCT065 87.8 78.8 75% 102 29.82 0.0
14 18:15 W 9 10.00 Mostly Cloudy BKN055 87.8 78.8 75% 102 29.83 0.0
14 17:55 W 6 10.00 Mostly Cloudy FEW040 SCT055 BKN075 87.8 78.8 75% 102 29.84 0.0
14 17:35 W 6 10.00 Overcast BKN039 BKN045 OVC095 86 78.8 79% 99 29.84 0.0
14 17:15 SW 9 10.00 Mostly Cloudy SCT044 BKN050 BKN065 89.6 78.8 71% 105 29.84 0.0
14 16:55 SW 8 G 16 10.00 Mostly Cloudy BKN043 BKN050 89.6 78.8 71% 105 29.84 0.0
14 16:35 SW 8 10.00 A Few Clouds FEW044 91.4 78.8 67% 108 29.84 0.0
14 16:15 SW 5 10.00 A Few Clouds FEW032 87.8 78.8 75% 102 29.84 0.0
14 15:55 S 7 10.00 Partly Cloudy SCT032 87.8 78.8 75% 102 29.84 0.0
14 15:15 S 9 10.00 A Few Clouds FEW025 FEW031 89.6 80.6 75% 108 29.84 0.0
14 14:55 S 8 G 15 10.00 A Few Clouds FEW024 FEW030 FEW038 87.8 78.8 75% 102 29.85 0.0
14 14:35 S 9 10.00 Partly Cloudy FEW023 FEW029 SCT035 87.8 78.8 75% 102 29.85 0.0
14 14:15 S 13 10.00 Mostly Cloudy FEW020 SCT025 BKN046 87.8 78.8 75% 102 29.86 0.0
14 13:55 S 10 10.00 Overcast SCT025 OVC031 86 78.8 79% 99 29.86 0.0
14 13:35 S 9 10.00 Mostly Cloudy SCT026 BKN032 86 77 75% 97 29.88 0.0
14 13:15 S 12 10.00 Partly Cloudy SCT025 86 78.8 79% 99 29.88 0.0
14 12:55 S 10 10.00 A Few Clouds FEW021 FEW028 86 77 75% 97 29.9 0.0
14 12:35 S 12 G 18 10.00 A Few Clouds FEW029 84.2 77 79% 94 29.91 0.0
14 12:15 S 9 G 16 10.00 Fair CLR 84.2 77 79% 94 29.92 0.0
14 11:55 S 12 10.00 Fair CLR 84.2 75.2 74% 92 29.92 0.0
14 11:35 SE 10 10.00 Fair CLR 82.4 75.2 79% 89 29.92 0.0
14 11:15 S 10 10.00 Fair CLR 82.4 75.2 79% 89 29.93 0.0
14 10:55 SE 9 G 15 10.00 Fair CLR 80.6 73.4 79% 85 29.94 0.0
14 10:35 SE 12 G 22 10.00 Fair CLR 78.8 73.4 84% 82 29.93 0.0
14 10:15 S 10 G 20 10.00 Fair CLR 78.8 71.6 79% 82 29.94 0.0
14 09:55 SE 14 10.00 Fair CLR 75.2 71.6 89% 75 29.93 0.0
14 09:35 SE 15 10.00 Fair CLR 77 71.6 83% 78 29.96 0.0
14 09:15 SE 15 G 23 10.00 Fair CLR 73.4 69.8 89% 29.96 0.0
14 08:55 SE 14 G 20 10.00 Fair CLR 73.4 69.8 89% 29.96 0.0
14 08:35 SE 7 G 14 10.00 A Few Clouds FEW042 FEW049 71.6 69.8 94% 29.97 0.0
14 08:15 S 7 G 14 10.00 Partly Cloudy SCT042 SCT048 SCT055 69.8 68 94% 29.98 0.0
14 07:55 SE 7 G 14 10.00 Overcast SCT043 OVC050 68 68 100% 29.98 0.0
14 07:35 Vrbl 5 G 14 10.00 Mostly Cloudy SCT049 BKN055 68 68 100% 29.98 0.0
14 07:15 SE 7 10.00 Mostly Cloudy SCT045 BKN050 68 68 100% 29.96 0.0
14 06:55 E 8 10.00 Overcast BKN037 OVC044 68 68 100% 29.99 0.0
14 06:35 E 10 G 20 7.00 Light Rain OVC034 68 68 100% 30 0.0
14 06:15 NE 9 G 23 10.00 Light Rain FEW016 SCT023 BKN032 69.8 68 94% 30 0.0
14 05:55 N 18 G 28 10.00 Overcast FEW013 BKN065 OVC075 73.4 73.4 100% 30 0.0
14 05:35 Calm 10.00 Overcast OVC070 75.2 73.4 94% 74 29.96 0.0
14 05:15 Calm 10.00 Mostly Cloudy BKN070 75.2 73.4 94% 74 29.95 0.0
14 04:55 S 3 10.00 A Few Clouds FEW065 73.4 73.4 100% 29.94 0.0
14 04:35 SE 5 10.00 Partly Cloudy SCT070 73.4 73.4 100% 29.93 0.0
14 04:15 Calm 10.00 Partly Cloudy SCT070 73.4 73.4 100% 29.93 0.0
14 03:55 S 5 10.00 Partly Cloudy SCT060 73.4 73.4 100% 29.92 0.0
14 03:35 S 5 10.00 Overcast SCT040 OVC060 75.2 73.4 94% 74 29.93 0.0
14 03:15 S 6 10.00 Mostly Cloudy BKN040 73.4 73.4 100% 29.93 0.0
14 02:55 S 7 10.00 Fair CLR 73.4 73.4 100% 29.94 0.0
14 02:35 S 6 10.00 Fair CLR 73.4 73.4 100% 29.94 0.0
14 02:15 S 8 10.00 Fair CLR 73.4 73.4 100% 29.94 0.0
14 01:55 SE 9 10.00 Fair CLR 75.2 73.4 94% 74 29.95 0.0
14 01:35 SE 7 10.00 Fair CLR 75.2 73.4 94% 74 29.96 0.0
14 01:15 SE 5 10.00 Fair CLR 75.2 73.4 94% 74 29.97 0.0
14 00:55 SE 6 10.00 Fair CLR 75.2 73.4 94% 74 29.98 0.0
14 00:35 SE 5 10.00 Fair CLR 77 73.4 89% 78 29.99 0.0
14 00:15 S 7 10.00 Fair CLR 77 73.4 89% 78 29.98 0.0
13 23:55 S 8 10.00 Partly Cloudy SCT045 77 73.4 89% 78 29.98 0.0
13 23:35 Vrbl 6 10.00 Overcast BKN045 OVC055 77 71.6 83% 78 29.99 0.0
13 23:15 N 6 10.00 Overcast BKN048 OVC055 77 75.2 94% 78 30.01 0.0
13 22:55 Calm 10.00 Overcast OVC048 78.8 73.4 84% 82 30.02 0.0
13 22:35 S 5 10.00 Overcast OVC048 78.8 73.4 84% 82 30.01 0.0
13 22:15 S 7 10.00 Overcast OVC048 78.8 73.4 84% 82 29.99 0.0
13 21:55 S 7 10.00 Overcast OVC048 77 73.4 89% 78 29.98 0.0
13 21:35 SE 7 10.00 Overcast OVC049 77 73.4 89% 78 29.98 0.0
13 21:15 SE 3 10.00 Overcast OVC050 77 73.4 89% 78 29.98 0.0
13 20:55 S 6 10.00 Mostly Cloudy BKN050 78.8 71.6 79% 82 29.97 0.0
13 20:35 S 6 10.00 Fair CLR 80.6 71.6 74% 85 29.97 0.0
13 20:15 S 8 10.00 Fair CLR 80.6 71.6 74% 85 29.97 0.0
13 19:55 S 9 10.00 Fair CLR 82.4 73.4 74% 88 29.98 0.0
13 19:35 S 8 10.00 Fair CLR 84.2 73.4 70% 91 29.98 0.0
13 19:15 S 10 10.00 Fair CLR 84.2 73.4 70% 91 29.97 0.0
13 18:55 S 8 10.00 Fair CLR 84.2 73.4 70% 91 29.97 0.0
13 18:35 S 10 G 17 10.00 Fair CLR 84.2 73.4 70% 91 29.96 0.0
13 17:55 S 12 G 17 10.00 Fair CLR 87.8 75.2 66% 98 29.95 0.0
13 17:35 S 10 10.00 Fair CLR 89.6 75.2 63% 100 29.96 0.0
13 17:15 S 9 G 16 10.00 Fair CLR 87.8 75.2 66% 98 29.96 0.0
13 16:55 S 13 10.00 A Few Clouds FEW039 87.8 75.2 66% 98 29.97 0.0
13 16:35 SW 12 10.00 A Few Clouds FEW035 FEW042 89.6 75.2 63% 100 29.97 0.0
13 16:15 S 10 G 17 10.00 Mostly Cloudy SCT034 SCT039 BKN046 87.8 77 70% 100 29.99 0.0
13 15:55 S 8 G 15 10.00 Overcast BKN036 OVC046 87.8 77 70% 100 30.01 0.0
13 15:35 SW 13 10.00 Mostly Cloudy SCT035 BKN043 BKN049 87.8 77 70% 100 30.02 0.0
13 15:15 S 12 10.00 Mostly Cloudy SCT030 BKN038 87.8 78.8 75% 102 30.01 0.0
13 14:55 S 10 10.00 Partly Cloudy FEW029 SCT038 87.8 77 70% 100 30.02 0.0
13 14:35 S 9 G 18 10.00 Mostly Cloudy SCT028 BKN035 BKN041 87.8 78.8 75% 102 30.02 0.0
13 14:15 SW 9 10.00 Mostly Cloudy SCT027 BKN033 BKN040 87.8 78.8 75% 102 30.03 0.0
13 13:55 S 13 10.00 Mostly Cloudy SCT027 BKN033 87.8 77 70% 100 30.04 0.0
13 13:35 S 13 10.00 Mostly Cloudy BKN027 BKN032 87.8 77 70% 100 30.04 0.0
13 13:15 S 13 G 18 10.00 Mostly Cloudy BKN027 BKN032 BKN060 87.8 77 70% 100 30.04 0.0
13 12:55 S 14 10.00 Mostly Cloudy SCT026 BKN031 BKN060 86 77 75% 97 30.05 0.0
13 12:35 S 15 10.00 Partly Cloudy FEW029 SCT055 87.8 77 70% 100 30.05 0.0
13 12:15 S 12 G 18 10.00 A Few Clouds FEW055 84.2 77 79% 94 30.06 0.0
13 11:55 S 12 G 18 10.00 Fair CLR 86 77 75% 97 30.05 0.0
13 11:35 S 14 G 20 10.00 Fair CLR 86 75.2 70% 95 30.05 0.0
13 11:15 S 14 G 21 10.00 NULL NULL 84.2 75.2 74% 92 30.04 0.0
13 10:55 S 13 G 18 0.00 NULL NULL 84.2 75.2 74% 92 30.04 0.0
13 10:35 SE 13 10.00 A Few Clouds FEW044 FEW060 84.2 75.2 74% 92 30.05 0.0
13 10:10 SE 8 G 14 10.00 A Few Clouds FEW045 FEW060 82.4 73.4 74% 88 30.06 0.0
13 09:55 SE 9 10.00 A Few Clouds FEW047 82.4 75.2 79% 89 30.06 0.0
13 09:35 SE 7 10.00 A Few Clouds FEW049 80.6 75.2 84% 86 30.07 0.0
13 09:15 SE 8 10.00 A Few Clouds FEW060 78.8 73.4 84% 82 30.08 0.0
13 08:55 SE 8 10.00 Mostly Cloudy BKN060 77 73.4 89% 78 30.09 0.0
13 08:35 SE 8 10.00 Fair CLR 77 73.4 89% 78 30.09 0.0
13 08:15 SE 8 10.00 A Few Clouds FEW060 75.2 71.6 89% 75 30.08 0.0
13 07:55 Vrbl 5 10.00 Overcast OVC060 73.4 71.6 94% 30.08 0.0
13 07:35 SE 7 10.00 Overcast OVC060 71.6 71.6 100% 30.08 0.0
13 07:15 SE 5 9.00 Mostly Cloudy BKN055 71.6 71.6 100% 30.08 0.0
13 06:55 SE 7 8.00 Partly Cloudy SCT060 71.6 69.8 94% 30.08 0.0
13 06:35 SE 6 7.00 A Few Clouds FEW055 FEW065 71.6 69.8 94% 30.09 0.0
13 06:15 SE 6 7.00 Fair CLR 69.8 69.8 100% 30.08 0.0
13 05:55 SE 7 8.00 Fair CLR 69.8 69.8 100% 30.08 0.0
13 05:35 SE 7 8.00 Fair CLR 69.8 69.8 100% 30.08 0.0
13 05:15 SE 7 9.00 A Few Clouds FEW049 69.8 69.8 100% 30.08 0.0
13 04:55 SE 6 9.00 Mostly Cloudy BKN048 69.8 69.8 100% 30.08 0.0
13 04:35 SE 6 8.00 Overcast OVC047 71.6 69.8 94% 30.08 0.0
13 04:15 SE 3 8.00 Overcast SCT034 OVC047 71.6 71.6 100% 30.08 0.0
13 03:55 SE 5 9.00 Overcast FEW025 BKN033 OVC045 71.6 69.8 94% 30.08 0.0
13 03:35 SE 3 10.00 Overcast OVC043 71.6 69.8 94% 30.08 0.0
13 03:15 SE 6 10.00 Mostly Cloudy FEW027 SCT034 BKN041 71.6 69.8 94% 30.08 0.0
13 02:55 SE 5 10.00 Overcast SCT028 OVC034 71.6 69.8 94% 30.08 0.0
13 02:35 SE 5 10.00 Overcast OVC029 71.6 69.8 94% 30.08 0.0
13 02:15 SE 6 10.00 Overcast OVC028 71.6 69.8 94% 30.08 0.0
13 01:55 SE 7 10.00 Overcast OVC029 71.6 69.8 94% 30.08 0.0
13 01:35 SE 6 10.00 Mostly Cloudy BKN030 71.6 69.8 94% 30.08 0.0
13 01:15 SE 6 10.00 Partly Cloudy SCT032 SCT060 71.6 68 88% 30.08 0.0
13 00:55 SE 6 10.00 Mostly Cloudy SCT035 BKN065 69.8 68 94% 30.08 0.0
13 00:35 SE 5 10.00 Partly Cloudy SCT070 71.6 69.8 94% 30.09 0.0
13 00:15 SE 5 10.00 Mostly Cloudy SCT070 BKN075 71.6 68 88% 30.09 0.0
12 23:55 SE 5 10.00 Partly Cloudy SCT075 69.8 68 94% 30.09 0.0
12 23:35 SE 5 10.00 A Few Clouds FEW050 69.8 68 94% 30.09 0.0
12 23:15 SE 5 10.00 Mostly Cloudy SCT050 BKN055 69.8 68 94% 30.09 0.0
12 22:55 SE 5 10.00 Partly Cloudy SCT055 SCT065 71.6 68 88% 30.09 0.0
12 22:35 SE 5 10.00 Overcast FEW041 BKN055 OVC090 69.8 68 94% 30.09 0.0
12 22:15 SE 6 10.00 Overcast FEW040 OVC070 71.6 68 88% 30.09 0.0
12 21:55 E 5 10.00 Overcast OVC070 71.6 68 88% 30.09 0.0
12 21:35 E 6 10.00 Overcast BKN075 OVC085 71.6 69.8 94% 30.09 0.0
12 21:15 E 3 10.00 Partly Cloudy SCT075 SCT090 71.6 69.8 94% 30.09 0.0
12 20:55 E 5 10.00 Fair CLR 73.4 69.8 89% 30.09 0.0
12 20:35 Calm 10.00 Fair CLR 73.4 71.6 94% 30.09 0.0
12 20:15 SE 5 10.00 A Few Clouds FEW080 FEW090 75.2 71.6 89% 75 30.08 0.0
12 19:55 SE 3 10.00 Mostly Cloudy BKN080 BKN090 77 69.8 79% 79 30.09 0.0
12 19:35 SE 3 10.00 Partly Cloudy SCT080 78.8 69.8 74% 81 30.08 0.0
12 19:15 SE 6 10.00 Fair CLR 80.6 68 66% 83 30.08 0.0
12 18:55 SE 7 10.00 Fair CLR 80.6 68 66% 83 30.07 0.0
12 18:35 SE 7 10.00 Fair CLR 82.4 69.8 66% 86 30.07 0.0
12 18:15 SE 6 G 13 10.00 Fair CLR 82.4 68 62% 85 30.06 0.0
12 17:55 SE 6 10.00 Fair CLR 82.4 68 62% 85 30.06 0.0
12 17:35 S 8 10.00 NULL NULL 82.4 66.2 58% 85 30.07 0.0
12 17:15 SE 8 10.00 NULL NULL 82.4 68 62% 85 30.07 0.0
12 16:55 SE 9 10.00 Fair CLR 82.4 66.2 58% 85 30.08 0.0
12 16:35 S 7 G 13 10.00 Fair CLR 82.4 66.2 58% 85 30.08 0.0
12 16:15 SE 7 10.00 Fair CLR 84.2 66.2 55% 87 30.08 0.0
12 15:55 SE 9 10.00 Fair CLR 84.2 64.4 51% 86 30.08 0.0
12 15:35 SE 10 10.00 Fair CLR 84.2 66.2 55% 87 30.08 0.0
12 15:15 S 8 10.00 Fair CLR 84.2 66.2 55% 87 30.08 0.0
12 14:55 E 8 G 17 10.00 Fair CLR 84.2 66.2 55% 87 30.08 0.0
12 14:35 SE 10 10.00 Fair CLR 84.2 68 58% 87 30.08 0.0
12 14:15 Vrbl 7 10.00 Fair CLR 82.4 68 62% 85 30.09 0.0
12 13:55 SE 6 G 13 10.00 Fair CLR 82.4 68 62% 85 30.09 0.0
12 13:35 SE 8 10.00 Fair CLR 82.4 68 62% 85 30.09 0.0
12 13:15 SE 8 10.00 Fair CLR 82.4 68 62% 85 30.1 0.0
12 12:55 SE 8 10.00 Fair CLR 82.4 66.2 58% 85 30.11 0.0
12 12:35 SE 8 10.00 Fair CLR 82.4 68 62% 85 30.11 0.0
12 12:15 SE 7 G 14 10.00 Fair CLR 80.6 68 66% 83 30.12 0.0
12 11:55 SE 8 10.00 Fair CLR 80.6 68 66% 83 30.13 0.0
12 11:35 Vrbl 7 10.00 Fair CLR 80.6 68 66% 83 30.13 0.0
12 11:15 SE 8 10.00 Fair CLR 80.6 68 66% 83 0 0.0
12 10:55 SE 8 10.00 Fair CLR 80.6 69.8 70% 84 30.13 0.0
12 10:35 Vrbl 5 10.00 Fair CLR 78.8 69.8 74% 81 30.13 0.0
12 10:15 Vrbl 6 10.00 Fair CLR 77 69.8 79% 79 30.13 0.0
12 09:55 SE 8 0.00 Fair CLR 77 0 0% 30.12 0.0
12 09:35 SE 6 10.00 Fair CLR 75.2 69.8 83% 75 30.13 0.0
12 09:15 SE 7 10.00 Fair CLR 73.4 69.8 89% 30.13 0.0
12 08:55 SE 6 10.00 Fair CLR 73.4 68 83% 30.13 0.0
12 08:35 Calm 7.00 Fair CLR 71.6 69.8 94% 30.13 0.0
12 08:15 Calm 7.00 Fair CLR 69.8 68 94% 30.13 0.0
12 07:55 Calm 8.00 Fair CLR 66.2 66.2 100% 30.13 0.0
12 07:35 Calm 9.00 Fair CLR 64.4 64.4 100% 30.12 0.0
12 07:15 Calm 7.00 Fair CLR 62.6 62.6 100% 30.11 0.0
12 06:55 Calm 9.00 Fair CLR 60.8 60.8 100% 30.1 0.0
12 06:35 Calm 9.00 Fair CLR 59 59 100% 30.1 0.0
12 06:15 Calm 5.00 Fog/Mist CLR 60.8 60.8 100% 30.09 0.0
Date Time (cdt) Wind (mph) Vis. (mi.) Weather Sky Cond. Air Dwpt Max. Min. Relative Humidity Wind Chill (°F) Heat Index (°F) altimeter (in) sea level (mb) 1 hr 3 hr 6 hr
6 hour
Temperature (ºF) Pressure Precipitation (in)